Regional Weather Roundup
Issued by NWS

Home | Current Version | Previous Version | Text Only | Print | Product List | Glossary On
Versions: 1 2 3 4 5 6 7 8 9 10 11 12 13 14 15 16 17 18 19 20 21 22 23 24 25 26 27 28 29 30 31 32 33 34 35 36 37 38 39 40 41 42 43 44 45 46 47 48 49 50
000
ASUS44 KMEG 261010
RWRTN
TENNESSEE HOURLY STATE WEATHER ROUNDUP
NATIONAL WEATHER SERVICE MEMPHIS TN
400 AM CST MON JAN 26 2015

TNZ002-004-019-021-049-052-054-088>092-261100-
WEST TENNESSEE

CITY           SKY/WX    TMP DP  RH WIND       PRES   REMARKS
MEMPHIS INTL   CLOUDY    40  31  70 N16G23    30.02R WCI  31
NWS MEMPHIS      N/A     39 N/A N/A MISG        N/A
JACKSON        CLOUDY    36  31  82 NW16      29.99R WCI  26
DYERSBURG      CLOUDY    36  19  51 N14G21    30.02S WCI  27
UNION CITY     CLOUDY    30  28  93 NW15      29.98R WCI  19
PARIS          CLOUDY    30  28  93 NW12      29.95R WCI  21
LEXINGTON      CLOUDY    36  30  80 NW9       29.92S WCI  29
SAVANNAH       CLOUDY    36  34  93 N16       29.95R WCI  26
$$

TNZ008-025-027-028-033-062-065-066-261100-
NORTH MIDDLE TENNESSEE

CITY           SKY/WX    TMP DP  RH WIND       PRES   REMARKS
NASHVILLE      CLOUDY    35  32  88 NW15G26   29.87R WCI  25
CLARKSVILLE    CLOUDY    33  29  85 NW17      29.91S WCI  22
SMYRNA         CLOUDY    36  33  88 NW21G28   29.87R WCI  25
COOKEVILLE     CLOUDY    39  37  93 NW8       29.74R WCI  34
CROSSVILLE     CLOUDY    37  34  89 W9        29.71R FOG     WCI  30
$$

TNZ061-075-076-078-094-096-097-261100-
SOUTH MIDDLE TENNESSEE

CITY           SKY/WX    TMP DP  RH WIND       PRES   REMARKS
FAYETTEVILLE   CLOUDY    37  37 100 MISG      29.81R
TULLAHOMA      CLOUDY    37  36  93 NW17      29.80R WCI  28
WINCHESTER     CLOUDY    39  37  93 NW8       29.79R WCI  34
MCMINNVILLE    CLOUDY    39  39 100 NW10      29.77R WCI  32
COLUMBIA       CLOUDY   N/A N/A N/A NW14      29.86R
SHELBYVILLE    CLOUDY    39  37  93 NW18      29.83R WCI  30
$$

TNZ017-018-042-046-047-261100-
NORTHEAST TENNESSEE

CITY           SKY/WX    TMP DP  RH WIND       PRES   REMARKS
TRI CITIES     LGT RAIN  41  39  93 SW5       29.63S
ELIZABETHTON   LGT RAIN  37  36  93 CALM      29.63F FOG
$$

TNZ012-013-036-069-073-074-261100-
CENTRAL EAST TENNESSEE

CITY           SKY/WX    TMP DP  RH WIND       PRES   REMARKS
KNOXVILLE      LGT RAIN  41  38  89 W9        29.69S
OAK RIDGE      CLOUDY    41  37  86 S7        29.70R
GATLINBURG     CLOUDY    39  36  87 W6        29.68R WCI  35
MORRISTOWN     CLOUDY    39  37  93 W7        29.66R WCI  34
$$

TNZ083-085-099-261100-
SOUTHEAST TENNESSEE

CITY           SKY/WX    TMP DP  RH WIND       PRES   REMARKS
CHATTANOOGA    CLOUDY    46  39  76 W9        29.74R
$$

SKY/WX REPORTED AS FAIR MEANS FEW OR NO CLOUDS BELOW
12 THOUSAND FEET.




USA.gov is the U.S. government's official web portal to all federal, state and local government web resources and services.